Other Public Products
Issued by NWS Charleston, SC

Current Version | Previous Version | Graphics & Text | Print | Product List | Glossary On
Versions: 1 2 3 4 5 6 7 8 9 10 11 12 13 14 15 16 17 18 19 20 21 22 23 24 25 26 27 28 29 30 31 32 33 34 35 36 37 38 39 40 41 42 43 44 45 46 47 48 49 50
000
FPUS82 KCHS 242012
OPUCHS

TEST...KCHS/KSAV Gateway Observations...TEST
National Weather Service Charleston SC
400 PM EDT MON JUL 24 2017

NOTE: "fair" indicates few or no clouds below 12,000 feet with no
significant weather and/or obstructions to visibility.

SCZ050-WAZ558-NCZ071-TXZ119-213-PAZ071-DCZ001-FLZ074-172-MI076-
NYZ176-178-MAZ016-IL014-TNZ027-NJZ106-GAZ044-MD014-242100-

...Gateway Observations for Charleston International...

CITY           SKY/WX    TMP DP  RH WIND       PRES   REMARKS
Chas Airport   PTSUNNY   85  75  72 SW13      29.96S HX  93
Seattle        MOSUNNY   76  53  44 N14       30.02F
Charlotte      MOSUNNY   88  71  57 SW5       29.94F HX  94
Dallas DFW     MOSUNNY   89  73  59 S7        29.95F HX  97
Dallas Love    PTSUNNY   87  73  62 SE3       29.96F HX  94
Philladelphia  MOSUNNY   85  67  54 S6        29.80S
Wash National  CLOUDY    90  67  46 CALM      29.81F HX  93
Baltimore      MOSUNNY   89  65  44 W12       29.81S HX  91
Miami          CLOUDY    87  76  69 S9G17     30.06F HX  97
Detroit        PTSUNNY   71  57  61 NW12      30.00R
Newark         CLOUDY    70  60  70 NE13      29.84S
Laguardia      CLOUDY    67  60  78 NE13      29.85R
J F K          PTSUNNY   69  61  75 N10       29.85R
Boston Logan   RAIN      58  58 100 NE17G25   29.89F FOG
Ft. Lauderdale NOT AVBL
Chicago O`Hare PTSUNNY   73  58  59 NE14      30.05S
Chicago Midway PTSUNNY   73  58  59 N15       30.04S
Houston Bush   PTSUNNY   95  70  44 S13       29.97F HX 101
Houston Hobby  CLOUDY    94  72  48 S10       29.97F HX 102
Nashville      CLOUDY    92  71  50 CALM      29.96F HX  98
Atlanta        PTSUNNY   86  70  58 N15G30    29.96S THUNDER HX  90

$$

GAZ044-118-TXZ119-213-NCZ071-DCZ001-MDZ014-506-PAZ021-071-NJZ106-
NYZ176-178-MAZ106-OHZ011-021-055-MIZ076-KYZ091-ILZ014-INZ047-
MNZ060-ONZ431-242100-

...Gateway Observations for Savannah International...

CITY           SKY/WX    TMP DP  RH WIND       PRES   REMARKS
Savannah Arpt  PTSUNNY   93  72  50 VRB5      29.95F HX 101
Atlanta        PTSUNNY   86  70  58 N15G30    29.96S THUNDER HX  90
Charlotte      MOSUNNY   88  71  57 SW5       29.94F HX  94
Dallas DFW     MOSUNNY   89  73  59 S7        29.95F HX  97
Houston Bush   PTSUNNY   95  70  44 S13       29.97F HX 101
Wash National  CLOUDY    90  67  46 CALM      29.81F HX  93
Wash Dulles    PTSUNNY   88  68  51 CALM      29.82F HX  91
Baltimore      MOSUNNY   89  65  44 W12       29.81S HX  91
Philadelphia   MOSUNNY   85  67  54 S6        29.80S
Newark         CLOUDY    70  60  70 NE13      29.84S
Laguardia      CLOUDY    67  60  78 NE13      29.85R
J F K          PTSUNNY   69  61  75 N10       29.85R
Boston         RAIN      58  58 100 NE17G25   29.89F FOG
Pittsburg      PTSUNNY   79  64  60 NW15      29.90R
Akron          PTSUNNY   75  60  59 NW12      29.95R
Cleveland      CLOUDY    71  60  68 NW13      29.99R
Cincinnati     PTSUNNY   83  67  58 N10       29.96S
Columbus       MOSUNNY   80  66  61 NW15      29.94S
Detroit        PTSUNNY   71  57  61 NW12      30.00R
Chicago O`Hare PTSUNNY   73  58  59 NE14      30.05S
Minneapolis    CLOUDY    76  60  57 E9        30.03F
Indianapolis   MOSUNNY   82  64  54 N9        29.98S
Toronto Canada CLOUDY    68  59  73 N20       29.82R

$$




USA.gov is the U.S. government's official web portal to all federal, state and local government web resources and services.